www.pogodaiklimat.ru

Погода и климат >> Архив погоды >> Россия >> Новгородская область >> Боровичи


ПОГОДА в Боровичах

  • Прогноз погоды в Боровичах
  • Монитор погоды в Боровичах
  • Климат города

АРХИВ ПОГОДЫ в Боровичах

Время (UTC), дата Ветер
(напр.,м/с)
 
Видим.   Явления Облачность Т
(С)
Тd
(С)
f
(%)
Тe
(С)
Тes
(С)
Комфортность P
(гПа)
Po
(гПа)
Тmin
(С)
Tmax
(С)
R
(мм)
R24
(мм)
S
(см)
12 15.11 Ю 2 20 км {ливн. осадки} 9/9 570 м
[Sc]
+2.1 -0.5 83 -1 -1 1014.0 1003.0
15 15.11 Ю 2 20 км в посл. час ливневой снег 9/9 400 м
[Sc]
+1.4 +0.3 92 -2 -2 1013.2 1002.1 0.1
18 15.11 ЮЗ 1 20 км {ливн. осадки} 9/9 270 м
[Sc]
+1.5 +0.4 92 -0 -0 1012.3 1001.2 +2.9 0.0
21 15.11 ЮЗ 2 20 км {ливн. осадки} 10/10 420 м
[Sc]
+2.1 +0.8 91 -1 -1 1011.7 1000.6
00 16.11 Ю 2 20 км в посл. час ливневой снег 9/9 360 м
[Sc]
+2.3 +1.1 92 -1 -1 1010.7 999.6
03 16.11 ЮЗ 1 20 км 9/9 500 м
[Sc]
+2.6 +0.9 89 +1 +1 1009.6 998.6 +1.2 0.0
06 16.11 Ю 1 20 км 8/3 300 м
[Sc Ac As Ci fib]
+0.9 -0.1 93 -1 -1 1009.0 997.9 +0.9 0.0
09 16.11 З 2 20 км 10/10 300 м
[Sc]
+2.1 +0.3 88 -1 -1 1010.7 999.6
12 16.11 З 2 10 км слабый ливневой дождь 10/10 330 м
[Cb calv]
+2.2 +0.9 91 -1 -1 1012.8 1001.7
15 16.11 З 3 10 км слабый ливневой дождь 10/10 300 м
[Cb calv]
+1.8 +0.8 93 -3 -3 1015.0 1003.9 0.4
18 16.11 З 1 10 км слабый ливневой дождь 10/10 330 м
[Cb calv]
+1.3 +0.5 94 -1 -1 1016.4 1005.2 +2.2 0.7
21 16.11 З 1 20 км {ливн. осадки} 10/10 660 м
[Sc]
+1.0 +0.3 95 -1 -1 1017.3 1006.1
00 17.11 З 1 20 км {ливн. осадки} 9/9 450 м
[Sc]
+1.0 +0.3 95 -1 -1 1017.8 1006.6
03 17.11 ЮЗ 1 20 км 9/9 960 м
[Sc]
+1.5 +0.6 94 -0 -0 1017.6 1006.4 +0.5 0.8
06 17.11 З 3 20 км 10/10 270 м
[Sc]
+1.0 -0.4 90 -4 -4 1017.1 1005.9 +0.5 0.5
09 17.11 ЮЗ 2 4000 м слабый ливневой дождь со снегом 10/10 300 м
[Cb calv]
+1.5 -0.0 90 -2 -2 1016.0 1004.9
12 17.11 Ю 3 20 км {ливн. осадки} 10/10 450 м
[Sc]
+2.4 -0.2 83 -2 -2 1013.2 1002.1
15 17.11 ЮЗ 2 10 км слабый ливневой дождь 10/10 360 м
[Cb calv]
+2.5 +0.5 87 -1 -1 1010.7 999.7 0.0
18 17.11 З 2 20 км в посл. час ливневой дождь 10/10 300 м
[Cb calv]
+2.3 +0.9 90 -1 -1 1010.0 999.0 +2.6 0.4
21 17.11 ЮЗ 2 20 км {ливн. осадки} 10/10 420 м
[Sc]
+3.0 +1.8 92 -0 -0 1010.5 999.5
00 18.11 ЮЗ 1 20 км {ливн. осадки} 10/10 870 м
[Sc]
+3.3 +1.4 87 +2 +2 1010.6 999.6
03 18.11 З 3
{10}
20 км 10/10 750 м
[Sc]
+3.3 -0.5 76 -0 -0 1010.8 999.8 +2.3 0.7
06 18.11 ЮЗ 2 20 км 9/9 1080 м
[Sc]
+2.3 -0.4 82 -1 -1 1010.6 999.6 +2.1 0.3
09 18.11 ЮЗ 3 20 км 8/8 300 м
[Sc]
+3.3 -0.3 77 -1 -0 1011.4 1000.4
12 18.11 ЮЗ 2 20 км 10/10 800 м
[Sc]
+2.6 -1.5 74 -0 -0 1011.2 1000.1
15 18.11 Ю 2 20 км 10/10 900 м
[Sc]
+2.4 -2.7 69 -0 -0 1010.9 999.8
18 18.11 Ю 2 20 км 10/10 1080 м
[Sc]
+2.1 -1.8 75 -1 -1 1009.6 998.5 +3.3
21 18.11 Ю 2 20 км 10/10 600 м
[Sc]
+2.2 -1.1 79 -1 -1 1009.3 998.3
00 19.11 Ю 2 20 км 10/10 1380 м
[Sc]
+1.7 -1.4 80 -2 -2 1009.1 998.0
03 19.11 Ю 2 20 км 10/10 1300 м
[Sc]
+1.3 -2.1 78 -2 -2 1008.1 997.0 +1.3
06 19.11 ЮВ 2 20 км 8/3 600 м
[Sc Ci fib]
0.0 -3.2 79 -4 -4 1007.7 996.6 0.0
09 19.11 ЮВ 2 20 км 9/0
[Ci fib]
+2.1 -4.2 63 -1 -0 1007.3 996.3
12 19.11 Ю 2 20 км 10/10 1110 м
[Sc]
+1.8 -4.8 62 -1 -1 1006.5 995.5
15 19.11 ЮВ 2 20 км 8/8 1020 м
[Sc]
+0.7 -2.1 82 -3 -3 1006.0 995.0
18 19.11 ЮВ 1 20 км 9/9 960 м
[Sc]
+0.5 -1.2 88 -1 -1 1005.3 994.2 +2.5
21 19.11 штиль 0 20 км 9/9 600 м
[Sc]
+0.7 -0.7 90 -1 -1 1004.9 993.8
00 20.11 ЮВ 1 10 км слабый ливневой снег 10/10 360 м
[Cb calv]
+0.2 -0.4 96 -2 -2 1004.2 993.1
03 20.11 штиль 0 4000 м слабый ливневой снег 10/10 270 м
[Cb calv]
-0.0 -0.4 97 -1 -1 1004.3 993.2 -0.1 2
06 20.11 штиль 0 20 км {ливн. осадки} 10/10 360 м
[Sc]
+0.2 -0.5 95 -1 -1 1005.6 994.5 -0.1 2 2
09 20.11 ЮЗ 1 20 км 10/10 420 м
[Sc]
+1.2 -0.9 86 -1 -1 1007.7 996.6
12 20.11 Ю 2 20 км 10/10 300 м
[Sc]
+1.6 +0.3 91 -2 -2 1008.0 996.9
15 20.11 ЮВ 2 20 км 10/10 400 м
[Sc]
+1.5 +0.1 90 -2 -2 1009.0 997.9 0.3
18 20.11 ЮВ 2 20 км 10/10 1080 м
[Sc]
+1.4 +0.2 92 -2 -2 1009.2 998.1 +1.7
21 20.11 Ю 1 20 км 10/10 1000 м
[Sc]
+1.4 0.0 90 -1 -1 1010.1 999.0
00 21.11 ЮВ 1 20 км 9/9 720 м
[Sc]
+0.4 -0.7 92 -2 -2 1010.1 999.0
03 21.11 В 1 20 км 3/0
[Ac trans]
-0.8 -1.7 94 -3 -3 1010.2 999.1 -0.8
06 21.11 В 2 20 км 10/10 480 м
[Sc]
-1.8 -2.6 94 -6 -6 1010.7 999.4 -1.9
09 21.11 В 1 2000 м дымка 10/10 120 м
[St]
-0.2 -0.7 96 -2 -2 1010.6 999.4
12 21.11 В 1 4000 м дымка 10/10 210 м
[St]
+0.6 -0.8 90 -1 -1 1010.4 999.3
15 21.11 В 1 20 км 10/10 420 м
[Sc]
+0.5 -0.8 91 -2 -2 1010.6 999.5
18 21.11 СВ 1 20 км 10/10 570 м
[Sc]
0.0 -1.4 90 -2 -2 1010.5 999.3 +0.6
21 21.11 СЗ 1 20 км {ливн. осадки} 10/10 540 м
[Sc]
-0.3 -1.5 92 -2 -2 1011.0 999.8
00 22.11 В 1 20 км {ливн. осадки} 10/10 360 м
[Sc]
-0.4 -2.5 86 -2 -2 1011.3 1000.1
03 22.11 штиль 0 20 км 10/10 500 м
[Sc]
-1.1 -2.9 88 -2 -2 1011.6 1000.4 -1.4 0.0
06 22.11 В 1 20 км 10/10 420 м
[Sc]
-1.2 -4.0 81 -3 -3 1012.5 1001.3 -1.4 0.0

 

Местоположение метеостанции Боровичи (Новгородская область, Россия): широта 58.42 долгота 33.90 высота над уровнем моря 89 м.

В архиве по умолчанию представлена погода в Боровичах за последнюю неделю. Архивные данные за месяц целиком и за предыдущие месяцы, начиная с января 2011 года, Вы можете получить, выбрав интересующий диапазон дат из раскрывающегося списка и нажав кнопку "Ввод!".

Внимание! Время в таблицах - всемирное. Для получения местного времени необходимо прибавить поправку, которая в Боровичах равна 3 ч.

Смотрите также архив погоды в соседних городах и на ближайших метеорологических станциях:

Погода в Бологом (Тверская область, Россия) (61 км)
Погода в Валдае (Новгородская область, Россия) (61 км)
Погода в Охонах (Новгородская область, Россия) (79 км)
Погода в Крестцах (Новгородская область, Россия) (82 км)
Погода в Вышнем Волочке (Тверская область, Россия) (106 км)
Погода в Демянске (Новгородская область, Россия) (120 км)
Погода в Ефимовской (Ленинградская область, Россия) (129 км)
Погода в Максатихе (Тверская область, Россия) (136 км)
Погода в Тихвине (Ленинградская область, Россия) (138 км)
Погода в Осташкове (Тверская область, Россия) (153 км)

Пояснения к столбцам:

Ветер - указаны скорость ветра в м/с - средняя за 10 мин, порывы в срок и между сроками (в фигурных скобках) и направление, откуда дует ветер: С - северный, СВ - северо-восточный, В - восточный, ЮВ - юго-восточный, Ю - южный, ЮЗ - юго-западный, З - западный, СЗ - северо-западный.
Видимость - горизонтальная дальность видимости в метрах или километрах. При видимости от 1 до 10 км при отсутствии осадков обычно наблюдается дымка, при ухудшении видимости до 1 км и менее - туман. В сухую погоду видимость может ухудшаться дымом, пылью или мглою.
Явления - указаны атмосферные явления, наблюдавшиеся в срок или в последний час перед сроком; фигурными скобками обозначены явления, наблюдавшиеся между сроками (за 1-3 часа до срока); квадратными скобками обозначены град или гололедные отложения с указанием их диаметра в мм.
Облачность - указаны через наклонную черту общая и нижняя облачность в баллах и высота нижней границы облаков в метрах; квадратными скобками обозначены формы облаков: Ci - перистые, Cs - перисто-слоистые, Cc - перисто-кучевые, Ac - высококучевые, As - высокослоистые, Sc - слоисто-кучевые, Ns - слоисто-дождевые, Cu - кучевые, Cb - кучево-дождевые. Подробнее классификацию облаков см. в Атласе облаков (PDF).
T - Температура воздуха - температура, измеренная на высоте 2 м над землей.
Td - Температура точки росы - температура, при понижении до которой содержащийся в воздухе водяной пар достигнет насыщения.
f - Относительная влажность воздуха - влажноcть воздуха, измеренная на высоте 2 м над землей.
Te - Эффективная температура - температура, которую ощущает одетый по сезону человек в тени. Характеристика душности погоды. При расчете учитывается влияние влажности воздуха и скорости ветра на теплоощущения человека.
Tes - Эффективная температура на солнце - температура, которую ощущает человек, с поправкой на солнечный нагрев. Характеристика знойности погоды. Зависит от высоты солнца над горизонтом, облачности и скорости ветра. Ночью, в пасмурную погоду, а также при ветре 12 м/с и более поправка равна нулю.
P - Атмосферное давление - приведенное к уровню моря атмосферное давление.
Po - Атмосферное давление - измеренное на уровне метеостанции атмосферное давление.
Tmin - Минимальная температура - минимум температуры воздуха на высоте 2 м над землей.
Tmax - Максимальная температура - максимум температуры воздуха на высоте 2 м над землей.
R - Количество осадков - Количество выпавших осадков за период времени, мм. При наведении курсора мыши на число - период времени, за который выпало указанное количество осадков.
R24 - Количество осадков - Количество выпавших осадков за 24 часа, мм.
S - Снежный покров - Высота снежного покрова, см. При наведении курсора мыши на число - состояние снежного покрова и степень покрытия местности в баллах.